Location: Ciserano
(45.5833°N, 9.6000°E)
Time: 16:47:47
(UTC+00:00)

SJ 16-02 - Pass Details

Date: 23 April 2021
Orbit: 605 x 617 km, 75.0° (Epoch: 11 May)

Event Time Altitude Azimuth Distance (km) Brightness Sun altitude
Exits shadow 00:54:22 43° 348° (NNW) 869 2.3 -28.1°
Drops below altitude 10° 00:57:35 10° 13° (NNE) 1,989 4.9 -27.8°
Sets 00:59:53 0° 17° (NNE) 2,900 6.0 -27.6°
